Regional Weather Roundup
Issued by NWS

Home | Current Version | Previous Version | Text Only | Print | Product List | Glossary Off
Versions: 1 2 3 4 5 6 7 8 9 10 11 12 13 14 15 16 17 18 19 20 21 22 23 24 25 26 27 28 29 30 31 32 33 34 35 36 37 38 39 40 41 42 43 44 45 46 47 48

000
ASUS45 KBOI 200810
RWRID
WEATHER ROUNDUP FOR IDAHO
NATIONAL WEATHER SERVICE BOISE ID
200 AM MDT SAT SEP 20 2014

NOTE: "FAIR" INDICATES FEW OR NO CLOUDS BELOW 12000 FEET
WITH NO SIGNIFICANT WEATHER AND/OR OBSTRUCTIONS TO VISIBILITY

IDZ012-014-200900-
SOUTHWEST IDAHO


CITY           SKY/WX    TMP DP  RH WIND       PRES   REMARKS
BOISE          CLEAR     61  44  53 CALM      30.05S
CALDWELL       CLEAR     61  45  55 W5        30.07S
MOUNTAIN HOME  CLEAR     62  45  52 NW6       30.06R
$$

IDZ016-017-200900-
SOUTHCENTRAL IDAHO


CITY           SKY/WX    TMP DP  RH WIND       PRES   REMARKS
BURLEY         CLEAR     52  43  71 CALM      30.12R
JEROME         CLEAR     58  45  62 S6        30.12S
TWIN FALLS     CLEAR     60  43  53 S12       30.12S
$$

IDZ019>023-200900-
SOUTHEAST IDAHO


CITY           SKY/WX    TMP DP  RH WIND       PRES   REMARKS
IDAHO FALLS    CLEAR     53  43  68 S5        30.17R
POCATELLO      CLEAR     54  46  74 E7        30.16R
REXBURG        CLEAR     52  42  69 NE3       30.18R
$$

IDZ006-010-011-018-031-032-200900-
CENTRAL IDAHO MOUNTAINS


CITY           SKY/WX    TMP DP  RH WIND       PRES   REMARKS
MCCALL         CLEAR     50  43  77 NW5       30.19R
HAILEY         CLEAR     54  41  62 NW9       30.19R
STANLEY          N/A     41  34  76 S5        30.28R
SALMON         PTCLDY    50  43  76 E5        30.17R
CHALLIS        CLEAR     50  38  63 S3        30.19R
$$

IDZ002-004-006-007-026-200900-
NORTHERN IDAHO


CITY           SKY/WX    TMP DP  RH WIND       PRES   REMARKS
LEWISTON       CLEAR     61  46  57 SE6       30.09R
LOWELL           N/A     55  50  83 NW5       30.17R
COEUR D`ALENE  PTCLDY    57  50  77 SE6       30.12R
MULLAN PASS    PTCLDY    50  42  74 SW5       30.26R
$$



USA.gov is the U.S. government's official web portal to all federal, state and local government web resources and services.